Погода в Большом Царыне

Россия / Республика Калмыкия     47°51′06″N   45°25′46″E
темп.,
°C
ветер,
м/с
пор.,
м/с
влажн.,
%
обл.,
%
осадки,
мм/ч
давл.,
гПа
погр.,
м
17 мая, пн
пн1700:00+21вюв513294 0.0 1011229
03:00+19вюв513333 0.0 1011206
06:00+20вюв614391 0.0 1011251
09:00+29юв9142271 0.0 10111339
12:00+32юв10121324 0.0 10103049
15:00+33юв9111384 0.0 10093256
18:00+29юв61020100 0.0 1009228
21:00+23вюв462599 0.0 101066
18 мая, вт
вт1800:00+21в5112732 0.0 1009153
03:00+19в5132721 0.0 1007189
06:00+21вюв717355 0.0 1007399
09:00+29юв914225 0.0 10071066
12:00+33юв11161427 0.0 10073120
15:00+30юв91518100 0.0 10071686
18:00+27вюв71325100 0.0 1007505
21:00+23ююв4627100 0.0 100872
19 мая, ср
ср1900:00+20ююв465169 0.0 100876
03:00+17з478425 0.0 1008144
06:00+18зсз577996 0.0 1008248
09:00+23зсз665671 0.0 1008640
12:00+26зсз764787 0.0 10091416
15:00+26зсз8738100 0.0 10101903
18:00+17з111473100 0.1 1012550
21:00+16з6107392 0.1 1014559
20 мая, чт
чт2000:00+15юз368310 0.0 1015236
03:00+14зюз49864 0.0 1015286
06:00+15зюз69805 0.0 1016403
09:00+19зюз56565 0.0 10171218
12:00+20з665486 0.3 10171333
15:00+23зсз89402 0.3 10172261
18:00+21з57475 0.0 10181477
21:00+17з34630 0.0 101857
21 мая, пт
пт2100:00+15зсз22690 0.0 101911
03:00+14зсз22725 0.0 101911
06:00+17зсз22630 0.0 102092
09:00+22зсз22450 0.0 10201011
12:00+25ссз22310 0.0 10201764
15:00+27ссв22270 0.0 10191990
18:00+26св33300 0.0 10191446
21:00+21всв46430 0.0 102087